Wind_Speed
18 18 18 18 18 18 18 18 19 19 19 20 20 20 20 20 20 20 20 21 21 21 21 21 21 21 21 21 22 22 22 21 21 22 22 22 23 23
19 19 19 19 19 20 20 20 20 20 21 22 22 22 22 22 22 22 22 22 23 23 23 22 22 22 22 22 22 22 22 23 23 23 23 23 23 23
20 21 21 21 21 21 21 22 22 21 21 22 22 23 24 24 24 23 24 24 24 24 24 24 23 23 23 23 23 23 23 24 24 24 24 24 25 25
23 23 23 22 23 23 23 23 22 22 22 21 22 23 24 24 24 24 25 25 25 25 25 25 24 24 24 24 24 25 25 25 25 26 26 26 26 26
24 25 24 23 23 23 23 23 23 22 22 22 22 23 24 24 25 25 25 25 25 25 25 26 25 25 25 25 25 26 26 26 26 26 27 27 27 28
25 25 25 25 24 24 24 24 24 24 23 23 23 24 24 25 26 26 26 26 26 26 26 26 26 26 26 26 26 26 26 27 27 27 27 27 28 28
26 26 26 26 26 25 25 24 24 25 25 25 25 25 25 26 26 26 27 27 26 27 26 26 27 27 27 27 27 27 27 27 27 28 28 28 29 29
26 27 27 27 27 26 26 26 25 25 25 26 26 26 26 26 27 27 26 26 26 27 27 26 26 26 27 27 27 27 27 27 28 28 28 29 29 30
26 26 27 27 27 27 27 27 27 26 26 26 26 26 26 26 27 27 27 26 26 26 27 27 27 27 27 27 28 28 28 29 29 28 28 29 29 30
26 27 27 27 28 28 28 28 28 27 26 26 25 25 26 26 27 27 27 27 27 27 27 27 27 28 28 29 28 28 29 29 30 29 29 29 29 30
27 27 27 28 28 29 28 28 28 27 27 27 26 25 26 26 26 27 27 27 28 28 28 28 28 28 28 28 28 28 29 29 29 29 29 30 30 30
27 28 28 28 29 29 29 28 28 27 27 27 27 26 26 27 27 27 27 27 27 27 28 28 28 28 28 28 29 29 28 28 28 29 29 29 29 30
27 28 29 29 29 29 29 28 28 28 28 27 27 28 27 27 27 28 28 28 28 27 27 27 27 27 27 28 28 28 28 28 28 28 28 29 29 30
27 27 28 28 28 29 28 28 28 28 28 28 28 28 28 28 28 28 27 27 27 27 27 27 27 27 27 27 28 28 28 28 28 28 28 29 30 30
27 27 28 28 28 28 28 28 28 28 28 29 29 28 28 28 28 27 27 27 27 28 28 28 28 28 28 28 28 28 28 29 30 30 30 31 31 31
26 27 27 28 28 28 28 28 28 28 29 29 29 29 29 28 28 28 29 28 29 29 29 29 29 28 28 28 28 28 29 29 29 30 31 32 32 32
26 27 27 27 27 27 27 28 28 28 29 29 28 29 29 29 29 29 29 29 29 29 29 30 30 29 29 29 29 29 29 29 30 31 32 31 31 32
26 27 27 27 27 27 27 28 28 28 29 28 28 28 28 28 29 30 30 30 30 30 30 30 30 29 29 30 31 31 31 31 32 32 32 32 31 32
27 27 27 27 27 27 27 27 27 28 28 28 28 28 28 28 29 29 30 30 30 30 30 30 31 30 30 31 31 32 32 32 32 32 32 32 32 32
26 26 25 26 27 27 27 27 26 26 27 27 27 27 28 29 29 30 30 30 30 30 30 31 31 31 31 32 32 32 33 32 32 32 33 33 33 33
26 25 26 26 26 26 27 26 26 26 27 27 27 27 27 28 29 30 30 30 30 30 30 30 31 32 32 32 31 31 32 32 32 32 33 32 32 31
26 25 25 26 26 26 27 27 27 27 27 28 28 28 28 29 29 30 30 30 30 30 30 30 30 31 31 32 32 31 32 32 33 33 32 32 31 30
25 25 25 25 26 26 26 26 27 28 28 28 28 28 29 29 29 29 29 29 29 29 29 30 30 31 31 32 32 32 32 32 32 32 32 31 30 29
Wind_Direction
273 275 276 275 273 273 274 275 274 273 273 273 272 270 270 271 273 274 277 277 276 277 279 277 275 275 273 270 268 268 267 267 267 264 263 263 263 264
271 273 275 276 275 274 273 274 275 276 273 273 271 268 269 271 272 273 274 276 276 278 279 278 279 278 277 276 272 270 268 269 269 266 264 264 263 264
272 272 273 275 276 277 276 276 275 275 275 273 272 268 268 270 271 273 274 275 276 277 277 278 278 277 276 277 275 273 272 272 272 268 265 264 264 264
272 272 272 273 275 277 278 278 277 276 275 274 273 271 269 269 271 273 275 277 276 276 277 277 276 276 277 276 275 275 274 274 274 270 267 265 265 265
272 271 271 272 274 276 277 276 276 277 275 276 275 273 272 271 273 273 275 277 278 277 276 275 274 274 275 275 274 274 273 274 274 272 267 266 267 266
271 271 271 272 273 274 275 275 276 276 277 277 277 275 273 273 274 274 274 275 275 275 275 274 272 272 274 274 274 273 274 274 274 272 268 267 268 267
269 270 271 272 272 273 275 276 277 277 277 277 277 277 276 275 274 273 273 274 275 275 275 275 274 272 272 272 274 274 274 274 274 273 271 269 268 268
268 269 270 270 271 272 274 275 277 278 278 277 277 276 277 277 275 273 273 274 274 274 276 276 275 274 272 271 272 273 274 275 274 273 272 270 270 269
268 268 269 269 270 273 274 274 275 277 279 279 278 277 276 277 276 275 274 273 274 275 277 277 276 274 273 272 272 273 275 275 273 272 272 272 271 270
270 269 269 269 270 272 273 274 274 277 279 280 279 279 278 275 275 274 273 273 274 276 277 277 275 274 274 274 274 274 274 275 273 272 271 271 272 271
272 271 269 270 271 272 272 273 273 275 277 278 277 277 278 277 274 275 275 274 275 277 277 276 275 274 273 273 274 274 274 274 272 271 271 271 271 272
272 271 271 271 272 272 271 272 273 274 276 276 276 277 277 277 277 277 276 277 279 278 277 276 275 273 273 274 274 275 274 274 272 271 271 271 271 272
272 271 271 270 272 272 272 272 273 274 276 276 276 277 277 278 278 277 278 279 280 281 279 276 276 275 274 274 275 276 275 274 272 271 272 272 273 273
271 271 271 270 271 271 272 272 273 274 276 276 276 277 277 277 278 279 279 280 280 280 280 279 278 277 277 275 274 275 275 274 273 273 273 274 274 274
270 270 271 271 270 271 272 273 273 274 274 275 275 275 276 277 278 279 279 278 277 278 279 280 280 280 279 278 277 277 276 276 275 275 276 276 276 275
270 270 271 272 272 272 274 275 274 274 274 275 275 274 274 275 277 278 278 278 278 278 280 281 281 280 280 280 279 279 278 278 277 277 278 279 279 279
270 271 271 271 272 273 274 276 276 276 275 275 275 275 274 274 276 277 279 279 279 280 280 280 282 282 282 281 281 280 280 279 279 279 280 280 280 280
274 273 272 270 271 273 274 276 277 277 276 275 274 275 276 276 277 277 278 279 280 281 281 281 282 284 283 283 284 283 282 281 281 282 282 281 280 281
276 276 274 272 272 273 275 276 277 278 277 275 274 274 276 277 278 277 278 280 281 280 280 281 282 284 285 285 285 284 284 284 283 282 283 283 283 282
274 275 273 271 272 273 275 276 277 278 277 276 276 275 276 277 278 278 278 279 280 280 280 281 282 283 284 285 285 285 284 285 285 285 285 286 286 283
273 273 272 271 272 274 274 275 276 277 277 277 278 279 279 280 280 280 279 279 279 280 280 281 281 283 284 285 285 285 286 286 287 287 287 286 286 284
273 273 274 274 274 274 275 276 276 277 278 278 278 279 279 281 282 282 281 281 281 281 280 280 280 283 285 285 285 285 286 287 287 288 287 286 284 283
273 275 275 274 274 275 277 277 277 277 278 278 278 279 279 281 282 282 281 281 281 281 281 281 282 285 287 288 288 287 288 287 287 286 286 286 284 282
Height
5823 5823 5823 5823 5822 5822 5821 5821 5821 5820 5821 5820 5819 5819 5819 5819 5818 5818 5817 5817 5816 5815 5815 5814 5813 5812 5812 5811 5811 5811 5811 5811 5811 5811 5811 5812 5812 5813
5818 5818 5818 5817 5817 5816 5816 5816 5815 5815 5815 5815 5814 5813 5813 5813 5812 5812 5812 5811 5810 5810 5809 5808 5807 5807 5806 5805 5805 5805 5805 5805 5805 5805 5805 5805 5806 5806
5812 5812 5812 5811 5811 5810 5810 5809 5809 5809 5808 5808 5807 5807 5806 5806 5806 5806 5805 5805 5804 5803 5803 5802 5801 5801 5800 5799 5799 5799 5798 5798 5798 5798 5798 5799 5799 5800
5806 5806 5806 5805 5805 5804 5804 5803 5803 5802 5802 5801 5801 5800 5800 5799 5799 5799 5799 5798 5798 5797 5796 5795 5795 5794 5794 5793 5793 5792 5792 5791 5791 5791 5791 5792 5792 5792
5799 5799 5799 5798 5798 5798 5797 5797 5796 5796 5795 5795 5794 5793 5793 5792 5792 5792 5792 5791 5790 5790 5789 5788 5788 5787 5787 5786 5786 5785 5785 5784 5784 5784 5784 5784 5784 5785
5791 5791 5791 5791 5791 5791 5790 5790 5789 5789 5788 5788 5787 5786 5786 5785 5785 5785 5785 5784 5783 5782 5781 5781 5781 5780 5779 5779 5778 5778 5777 5777 5776 5776 5776 5776 5776 5776
5783 5783 5783 5784 5783 5783 5783 5782 5782 5781 5781 5780 5780 5779 5778 5778 5778 5777 5777 5776 5775 5774 5774 5773 5773 5772 5772 5771 5771 5770 5770 5769 5768 5768 5768 5768 5768 5768
5775 5775 5775 5775 5775 5775 5775 5774 5774 5774 5773 5773 5772 5771 5771 5770 5770 5769 5769 5768 5768 5767 5766 5766 5765 5764 5764 5764 5763 5762 5762 5761 5760 5760 5760 5759 5759 5759
5767 5767 5767 5767 5767 5767 5767 5766 5766 5765 5765 5765 5764 5763 5762 5762 5761 5761 5760 5760 5760 5759 5758 5758 5757 5756 5756 5755 5755 5754 5753 5753 5752 5752 5751 5751 5751 5751
5759 5759 5759 5759 5759 5759 5758 5758 5758 5757 5757 5757 5756 5755 5754 5754 5753 5752 5752 5752 5751 5750 5749 5749 5748 5748 5747 5746 5746 5746 5745 5744 5744 5743 5743 5743 5742 5742
5751 5751 5751 5751 5751 5750 5750 5750 5750 5749 5749 5748 5748 5747 5746 5746 5745 5744 5744 5743 5743 5742 5741 5740 5740 5739 5738 5738 5737 5736 5736 5735 5734 5734 5734 5734 5733 5733
5742 5742 5742 5742 5742 5741 5741 5741 5741 5741 5740 5740 5740 5739 5738 5738 5737 5736 5735 5735 5734 5734 5732 5731 5730 5730 5730 5729 5728 5727 5727 5726 5725 5725 5725 5725 5724 5724
5733 5733 5733 5733 5733 5733 5733 5733 5733 5732 5732 5732 5731 5731 5730 5730 5729 5729 5728 5727 5726 5724 5723 5722 5722 5721 5721 5720 5719 5718 5718 5717 5716 5716 5716 5715 5715 5714
5724 5724 5724 5724 5724 5724 5724 5724 5724 5724 5723 5723 5723 5722 5722 5721 5721 5720 5719 5718 5717 5716 5715 5714 5713 5712 5712 5711 5711 5710 5709 5708 5707 5707 5706 5706 5705 5705
5716 5716 5716 5716 5716 5716 5716 5715 5715 5715 5715 5714 5714 5714 5713 5713 5712 5711 5710 5709 5708 5707 5706 5705 5704 5704 5703 5702 5702 5701 5700 5699 5698 5698 5697 5696 5695 5695
5707 5707 5707 5707 5707 5707 5707 5707 5706 5706 5706 5705 5705 5705 5704 5704 5703 5702 5701 5701 5700 5699 5698 5696 5696 5695 5694 5694 5693 5692 5691 5690 5689 5688 5687 5686 5685 5684
5699 5699 5699 5699 5699 5698 5698 5698 5698 5697 5697 5696 5696 5696 5695 5695 5694 5694 5693 5692 5691 5690 5689 5688 5687 5686 5685 5685 5684 5683 5682 5681 5680 5679 5678 5676 5675 5674
5691 5691 5691 5691 5691 5691 5690 5690 5689 5689 5688 5687 5687 5687 5686 5686 5685 5685 5684 5684 5683 5682 5681 5680 5679 5677 5677 5675 5675 5673 5672 5671 5670 5668 5667 5666 5665 5663
5683 5683 5683 5683 5683 5682 5682 5682 5681 5680 5679 5679 5679 5678 5678 5677 5677 5676 5675 5674 5674 5673 5672 5671 5670 5668 5667 5667 5665 5663 5662 5660 5659 5658 5656 5655 5654 5653
5676 5675 5675 5675 5674 5674 5674 5673 5673 5672 5671 5671 5670 5670 5669 5668 5668 5667 5666 5665 5664 5663 5663 5661 5660 5659 5658 5657 5656 5654 5652 5650 5649 5648 5646 5645 5644 5642
5668 5668 5667 5667 5666 5666 5665 5665 5664 5664 5663 5663 5662 5661 5660 5660 5659 5658 5657 5656 5655 5654 5653 5652 5651 5649 5648 5646 5645 5644 5642 5640 5639 5637 5636 5634 5633 5632
5660 5660 5659 5659 5658 5657 5657 5656 5656 5655 5655 5654 5653 5653 5652 5651 5650 5648 5648 5647 5646 5645 5644 5643 5641 5640 5638 5637 5635 5634 5632 5630 5628 5627 5625 5624 5623 5622
5652 5651 5651 5650 5650 5649 5649 5648 5648 5647 5646 5646 5645 5644 5643 5642 5640 5639 5639 5638 5637 5636 5635 5633 5632 5630 5628 5626 5625 5623 5622 5619 5618 5616 5615 5613 5612 5611